Torna al catalogo

COSMOS 1275 DEB

AttivoPO
NORAD 19853·DEBRIS·🇷🇺 Russia

Lanciato Jun 4, 1981 da Plesetsk Cosmodrome

Loading…

Prossimi Passaggi (prossime 24 ore)

TLE

AggiornatoSource: Space-Track

Epoca: Sep 12, 2026, 20:05 UTC

1 19853U 81053MH  26255.83694619  .00000643  00000-0  69416-3 0  9991
2 19853  82.9915 200.1736 0122296 351.8707  36.4427 13.68739824706464

Traccia COSMOS 1275 DEB in tempo reale con AllMySat

Download on the App Store